Location: Albert Place
(40.7505°N, 111.9230°W)
Time: 23:00:29
(UTC+00:00)

BREEZE M DEB (TANK) - Pass Details

Date: 13 December 2025
Orbit: 292 x 11212 km, 49.5° (Epoch: 14 January)

Event Time Altitude Azimuth Distance (km) Brightness Sun altitude
Exits shadow 14:12:05 - 283° (WNW) 1,455 3.8 -6.1°
Reaches altitude 10° 14:12:25 10° 287° (WNW) 1,317 3.6 -6.0°
Maximum altitude 14:14:45 30° 354° (N) 900 3.2 -5.6°
Drops below altitude 10° 14:19:15 10° 56° (NE) 2,620 6.2 -4.9°
Sets 14:23:57 0° 66° (ENE) 4,752 7.7 -4.1°
